Regional Weather Roundup
Issued by NWS

Home | Current Version | Previous Version | Text Only | Print | Product List | Glossary On
Versions: 1 2 3 4 5 6 7 8 9 10 11 12 13 14 15 16 17 18 19 20 21 22 23 24 25 26 27 28
000
ASUS45 KCYS 180810
RWRWY

WYOMING REGIONAL WEATHER ROUNDUP
NATIONAL WEATHER SERVICE CHEYENNE WY
100 AM MST THU JAN 18 2018

NOTE:  "FAIR" INDICATES FEW OR NO CLOUDS BELOW 12,000 FEET
WITH NO SIGNIFICANT WEATHER AND/OR OBSTRUCTIONS TO VISIBILITY.

WYZ001-180900-
YELLOWSTONE NATIONAL PARK

CITY           SKY/WX    TMP DP  RH WIND       PRES   REMARKS
LK YELLOWSTONE   N/A     23  21  92 CALM      30.28F
W YELLOWSTONE  NOT AVBL

$$
WYZ002>013-054>058-071-098>099-180900-
NORTHERN WYOMING

CITY           SKY/WX    TMP DP  RH WIND       PRES   REMARKS
JACKSON        FAIR       7   4  87 NE8       30.32F WCI  -6
CODY           FAIR      44  18  35 SW15      30.09F
GREYBULL       FAIR       9   6  88 NW7       30.13F WCI  -2
WORLAND        FAIR      10   8  92 SW5       30.11F WCI   2
SHERIDAN       FAIR      27  16  63 CALM      29.96F
BUFFALO        FAIR      38  11  32 W6        30.00F WCI  33
GILLETTE         N/A    N/A N/A N/A MISG      30.01F
HULETT         FAIR      36  21  55 SW12      30.00F WCI  27
NEWCASTLE      FAIR      27  18  69 NE5       30.06F WCI  21

$$
WYZ014>020-022>026-101>103-180900-
CENTRAL WYOMING

CITY           SKY/WX    TMP DP  RH WIND       PRES   REMARKS
BIG PINEY      FAIR      11   8  88 NE5       30.30F WCI   3
PINEDALE       FAIR      10   9  92 W7        30.30F WCI   0
DUBOIS         FAIR      28  12  50 NW18      30.19F WCI  16
LANDER         FAIR      15  12  88 S3        30.13F
RIVERTON       FAIR      16  11  80 NE7       30.15F WCI   6
CASPER         FAIR      36  22  56 SW21      30.14F WCI  25
DOUGLAS        FAIR      24  19  81 CALM      30.09F

$$
WYZ021-027>030-104>119-180900-
SOUTHERN WYOMING

CITY           SKY/WX    TMP DP  RH WIND       PRES   REMARKS
EVANSTON       FAIR      29  24  82 S7        30.30F WCI  22
FORT BRIDGER   FAIR      31  22  69 W6        30.32F WCI  25
ROCK SPRINGS   FAIR      27  22  81 SW10      30.28F WCI  17
DIXON            N/A     22  14  71 E8        30.36F WCI  13
RAWLINS        FAIR      28  18  66 SW9       30.27F WCI  19
SARATOGA       FAIR      23  16  74 S9        30.29F WCI  13
LARAMIE        FAIR      25  17  72 SW14      30.20F WCI  13
CHEYENNE       FAIR      32  17  54 W12       30.14F WCI  23
TORRINGTON     FAIR      22  19  89 NE5       30.10F WCI  16

$$




USA.gov is the U.S. government's official web portal to all federal, state and local government web resources and services.